Weather History for Morristown, NJ

Change the Weather History Date:

Monday, February 18, 2013

  Actual Average Record
Temperature  
Mean Temperature 25 °F -  
Max Temperature 35 °F 38 °F 65 °F (1976)
Min Temperature 15 °F 19 °F -15 °F (1979)
Degree Days  
Heating Degree Days 40    
Moisture  
Dew Point 6 °F    
Average Humidity 46    
Maximum Humidity 58    
Minimum Humidity 28    
Precipitation  
Precipitation 0.00 in - - ()
Sea Level Pressure  
Sea Level Pressure 30.16 in    
Wind  
Wind Speed 10 mph (WNW)    
Max Wind Speed 17 mph    
Max Gust Speed 34 mph    
Visibility 11 miles    
Events      
Averages and records for this station are not official NWS values.
T = Trace of Precipitation, MM = Missing Value Source: NWS Daily Summary

Daily Weather History Graph

Daily Weather History Graph

Search for Another Location

Airport:

Trip Planner

Search our weather history database for the weather conditions in past years. The results will help you decide how hot, cold, wet, or windy it might be!

Date:

Astronomy

Feb. 18, 2013 Rise Set
Actual Time 6:47 AM EST 5:36 PM EST
Civil Twilight 6:19 AM EST 6:04 PM EST
Nautical Twilight 5:47 AM EST 6:36 PM EST
Astronomical Twilight 5:15 AM EST 7:08 PM EST
Moon 11:19 AM EST (2/18) 1:25 AM EST (2/18)
Length of Visible Light 11h 44m
Length of Day
10h 48m
First Quarter, 58% of the Moon is Illuminated
Feb 18
First Quarter
Feb 25
Full
Mar 4
Last Quarter
Mar 11
New
Mar 19
First Quarter

Hourly Weather History & Observations

Time (EST) Temp. Windchill Dew Point Humidity Pressure Visibility Wind Dir Wind Speed Gust Speed Precip Events Conditions
12:15 AM 19.4 °F 7.9 °F -0.4 °F 42% 30.03 in 10.0 mi West 10.4 mph 21.9 mph N/A   Scattered Clouds
12:35 AM 19.4 °F 5.5 °F -0.4 °F 42% 30.04 in 10.0 mi NW 15.0 mph 26.5 mph N/A   Clear
12:55 AM 19.4 °F 9.5 °F -0.4 °F 42% 30.05 in 10.0 mi WNW 8.1 mph 20.7 mph N/A   Clear
1:15 AM 19.4 °F 6.6 °F -0.4 °F 42% 30.05 in 10.0 mi WNW 12.7 mph 20.7 mph N/A   Clear
1:35 AM 19.4 °F 8.6 °F 1.4 °F 46% 30.05 in 10.0 mi West 9.2 mph 18.4 mph N/A   Clear
1:55 AM 19.4 °F 7.9 °F 1.4 °F 46% 30.06 in 10.0 mi WNW 10.4 mph - N/A   Clear
2:15 AM 19.4 °F 8.6 °F 1.4 °F 46% 30.06 in 10.0 mi WNW 9.2 mph 26.5 mph N/A   Clear
2:35 AM 19.4 °F 7.2 °F 1.4 °F 46% 30.06 in 10.0 mi WNW 11.5 mph 19.6 mph N/A   Clear
2:55 AM 19.4 °F 12.8 °F 1.4 °F 46% 30.07 in 10.0 mi WSW 4.6 mph 18.4 mph N/A   Clear
3:15 AM 19.4 °F 9.5 °F 3.2 °F 49% 30.08 in 10.0 mi NW 8.1 mph 19.6 mph N/A   Clear
3:35 AM 19.4 °F 6.6 °F 3.2 °F 49% 30.09 in 10.0 mi NW 12.7 mph 20.7 mph N/A   Clear
3:55 AM 19.4 °F 7.9 °F 3.2 °F 49% 30.10 in 10.0 mi WNW 10.4 mph 23.0 mph N/A   Clear
4:15 AM 19.4 °F 9.5 °F 3.2 °F 49% 30.10 in 10.0 mi NW 8.1 mph 20.7 mph N/A   Clear
4:35 AM 17.6 °F 6.4 °F 3.2 °F 53% 30.12 in 10.0 mi West 9.2 mph - N/A   Clear
4:55 AM 17.6 °F 5.7 °F 3.2 °F 53% 30.13 in 10.0 mi West 10.4 mph - N/A   Clear
5:15 AM 17.6 °F 6.4 °F 3.2 °F 53% 30.15 in 10.0 mi WNW 9.2 mph - N/A   Clear
5:35 AM 19.4 °F 7.9 °F 3.2 °F 49% 30.16 in 10.0 mi West 10.4 mph 17.3 mph N/A   Clear
6:45 AM 15.8 °F 2.7 °F 3.2 °F 58% 30.20 in 10.0 mi NNW 11.5 mph 15.0 mph N/A   Clear
7:45 AM 17.6 °F 5.0 °F 3.2 °F 53% 30.21 in 10.0 mi NNW 11.5 mph 24.2 mph N/A   Clear
8:45 AM 19.4 °F 5.5 °F 5.0 °F 54% 30.23 in 10.0 mi NNW 15.0 mph 34.5 mph N/A   Clear
9:45 AM 23.0 °F 9.2 °F 6.8 °F 50% 30.23 in 20.0 mi WNW 17.3 mph 26.5 mph N/A   Clear
10:45 AM 24.8 °F 14.0 °F 6.8 °F 46% 30.25 in 20.0 mi WNW 11.5 mph 20.7 mph N/A   Clear
11:45 AM 28.4 °F 17.0 °F 6.8 °F 40% 30.25 in 10.0 mi WNW 15.0 mph 24.2 mph N/A   Clear
12:45 PM 30.2 °F 20.2 °F 6.8 °F 37% 30.23 in 10.0 mi NW 12.7 mph 21.9 mph N/A   Clear
1:45 PM 32.0 °F 24.2 °F 3.2 °F 30% 30.21 in 10.0 mi NNW 9.2 mph 18.4 mph N/A   Clear
2:45 PM 35.6 °F 26.6 °F 5.0 °F 28% 30.19 in 20.0 mi WNW 13.8 mph - N/A   Clear
3:45 PM 35.6 °F 28.6 °F 5.0 °F 28% 30.19 in 20.0 mi WNW 9.2 mph - N/A   Clear
4:45 PM 33.8 °F 26.4 °F 5.0 °F 30% 30.19 in 20.0 mi WNW 9.2 mph - N/A   Clear
5:45 PM 33.8 °F 29.6 °F 5.0 °F 30% 30.20 in 10.0 mi West 4.6 mph - N/A   Partly Cloudy
6:45 PM 32.0 °F 26.4 °F 10.4 °F 41% 30.21 in 10.0 mi WSW 5.8 mph - N/A   Clear
7:45 PM 28.4 °F 22.2 °F 12.2 °F 51% 30.21 in 10.0 mi SSW 5.8 mph - N/A   Clear
8:45 PM 30.2 °F 24.3 °F 12.2 °F 47% 30.21 in 10.0 mi SSW 5.8 mph - N/A   Clear
9:45 PM 30.2 °F 24.3 °F 12.2 °F 47% 30.21 in 10.0 mi SSW 5.8 mph - N/A   Clear
9:55 PM 30.2 °F 26.7 °F 14.0 °F 51% 30.21 in 10.0 mi South 3.5 mph - N/A   Clear
10:15 PM 30.2 °F 26.7 °F 14.0 °F 51% 30.21 in 10.0 mi South 3.5 mph - N/A   Scattered Clouds
10:35 PM 30.2 °F - 14.0 °F 51% 30.20 in 10.0 mi Calm Calm - N/A   Clear
10:55 PM 30.2 °F - 12.2 °F 47% 30.20 in 10.0 mi Calm Calm - N/A   Scattered Clouds
11:15 PM 30.2 °F - 14.0 °F 51% 30.19 in 10.0 mi Calm Calm - N/A   Scattered Clouds
11:35 PM 30.2 °F - 12.2 °F 47% 30.19 in 10.0 mi Calm Calm - N/A   Clear
11:55 PM 30.2 °F - 14.0 °F 51% 30.19 in 10.0 mi Calm Calm - N/A   Clear